This is the latest recevied weather packets stored in our database for station/object E7HQ-1. If no packets are shown the sender has not sent any weather packets the latest 10 day(s).
| Time | Temp. | Humidity | Pressure | Rain* | Wind** | Luminosity | Snow |
|---|---|---|---|---|---|---|---|
| 1777372010 | 24.44° C | 31% | 1027.7 hPa | - | - | - | - |
| 1777371110 | 23.89° C | 31% | 1027.9 hPa | - | - | - | - |
| 1777370210 | 23.89° C | 32% | 1027.9 hPa | - | - | - | - |
| 1777368409 | 23.33° C | 30% | 1028.2 hPa | - | - | - | - |
| 1777366609 | 22.78° C | 32% | 1028.3 hPa | - | - | - | - |
| 1777365709 | 22.78° C | 33% | 1028.4 hPa | - | - | - | - |
| 1777364808 | 22.22° C | 32% | 1028.4 hPa | - | - | - | - |
| 1777363908 | 21.11° C | 33% | 1028.4 hPa | - | - | - | - |
| 1777363008 | 20.56° C | 36% | 1028.3 hPa | - | - | - | - |
| 1777362108 | 20° C | 37% | 1028.4 hPa | - | - | - | - |
| 1777361207 | 19.44° C | 36% | 1028.3 hPa | - | - | - | - |
| 1777360307 | 18.33° C | 36% | 1028.3 hPa | - | - | - | - |
| 1777359406 | 18.33° C | 34% | 1028.2 hPa | - | - | - | - |
| 1777357605 | 17.22° C | 39% | 1028.3 hPa | - | - | - | - |
| 1777356711 | 17.22° C | 38% | 1028.3 hPa | - | - | - | - |
| 1777355811 | 16.11° C | 40% | 1028.4 hPa | - | - | - | - |
| 1777354010 | 13.89° C | 46% | 1028.5 hPa | - | - | - | - |
| 1777353110 | 13.33° C | 45% | 1028.4 hPa | - | - | - | - |
| 1777352210 | 12.78° C | 45% | 1028.3 hPa | - | - | - | - |
| 1777351310 | 12.78° C | 45% | 1028.3 hPa | - | - | - | - |
| 1777350409 | 12.78° C | 45% | 1028.2 hPa | - | - | - | - |
| 1777349509 | 12.22° C | 47% | 1028.1 hPa | - | - | - | - |
| 1777348609 | 12.22° C | 46% | 1028.1 hPa | - | - | - | - |
| 1777347709 | 12.22° C | 46% | 1028.1 hPa | - | - | - | - |
| 1777346809 | 12.22° C | 45% | 1028 hPa | - | - | - | - |
* Rain since midnight (hover to see other rain measurements)
** Current wind speed in m/s (hover to see current wind gust speed)